Location: Canazei
(46.4667°N, 11.7667°E)
Time: 03:44:30
(UTC+00:00)

SL-16 R/B - Pass Details

Date: 21 April 2021
Orbit: 985 x 1006 km, 99.5° (Epoch: 10 May)

Event Time Altitude Azimuth Distance (km) Brightness Sun altitude
Exits shadow 01:19:17 56° 227° (SW) 1,184 2.5 -25.0°
Maximum altitude 01:20:03 60° 258° (WSW) 1,142 2.6 -24.9°
Drops below altitude 10° 01:26:16 10° 338° (NNW) 2,793 5.3 -24.3°
Sets 01:28:48 0° 342° (NNW) 3,748 6.0 -24.1°
